Location: Pradons
(44.4746°N, 4.3578°E)
Time: 19:21:02
(UTC+00:00)

Cosmos 1703 - Pass Details

Date: 06 August 2020
Orbit: 523 x 541 km, 82.5° (Epoch: 01 October)

Event Time Altitude Azimuth Distance (km) Brightness Sun altitude
Rises 02:40:02 0° 6° (N) 2,711 7.7 -17.5°
Reaches altitude 10° 02:42:43 10° 24° (NNE) 1,813 7.1 -17.2°
Maximum altitude 02:45:36 19° 71° (ENE) 1,332 6.1 -16.8°
Drops below altitude 10° 02:48:27 10° 117° (ESE) 1,800 6.2 -16.5°
Sets 02:51:06 0° 136° (SE) 2,684 6.8 -16.1°
